GEFSSGP_500_meanwind_138.txt.gz
Wind_Speed
12 11 11 10 9 8 6 5 7 12 13 12 12 11 13 13 11 11 11 10 8 8 6 5 4 4 4 4 4 4 3 3 3 2 2 2 2 2 2 1 1 1 1 1 1 1 0 0 0
12 12 11 10 8 8 10 9 11 14 15 15 13 12 14 12 11 12 12 11 8 9 7 7 6 6 5 5 4 4 4 4 4 3 3 3 3 3 3 3 2 2 2 2 2 2 2 2 1
13 12 11 10 7 6 10 13 16 17 17 15 14 14 14 12 12 12 12 11 10 10 9 9 8 7 6 5 5 5 5 5 5 5 4 4 4 4 4 4 4 4 4 4 4 3 3 3 3
13 12 11 9 5 6 11 16 21 19 18 16 15 16 15 13 13 12 12 12 11 10 10 10 9 8 7 6 6 6 6 6 6 6 6 6 6 5 6 6 6 5 5 6 5 5 5 5 5
14 12 10 7 7 10 15 19 21 19 17 17 16 17 15 13 13 13 13 13 12 10 10 10 9 8 8 7 7 7 7 7 7 7 6 6 6 6 6 7 6 6 6 7 7 6 6 7 7
13 12 8 7 10 14 19 22 20 18 16 18 17 19 16 13 13 14 14 13 12 11 11 11 10 10 9 9 9 9 8 8 8 8 8 7 7 7 7 7 7 7 7 7 7 7 7 7 8
13 12 8 6 9 15 20 24 21 18 17 17 18 21 17 14 13 14 14 14 13 12 13 13 12 12 11 10 10 10 10 10 9 9 9 8 8 8 8 8 7 7 7 7 7 8 8 8 8
11 10 6 5 9 13 21 25 22 19 17 19 21 21 17 16 15 14 15 15 14 13 14 14 13 13 12 11 11 12 12 12 11 10 10 10 9 9 9 9 9 8 8 8 8 8 8 9 10
10 7 5 5 9 13 19 22 20 19 19 20 22 20 20 17 15 15 16 16 15 15 14 15 14 14 14 12 12 13 13 12 12 11 11 11 10 10 10 9 9 9 10 9 9 9 9 10 11
9 7 7 11 14 15 16 19 17 18 18 20 21 21 20 17 15 16 17 17 17 17 17 16 16 16 15 14 14 14 14 14 14 13 11 11 10 10 9 9 9 9 10 10 10 10 10 11 11
9 8 10 13 15 16 16 17 18 18 17 19 20 19 16 18 17 17 19 20 19 18 18 17 17 17 16 15 15 15 15 15 14 13 11 10 10 10 9 8 8 8 8 8 8 9 10 10 10
10 10 12 13 14 15 14 16 17 17 18 18 20 20 18 19 20 19 20 21 20 19 19 18 18 18 17 16 16 15 15 14 13 12 11 11 10 9 8 7 7 7 7 8 8 9 9 10 10
10 11 11 12 13 14 14 15 16 17 18 19 20 20 20 21 21 22 22 22 22 21 20 19 18 18 18 17 17 15 13 12 11 11 11 10 8 7 7 7 6 6 7 7 8 9 9 9 9
9 9 10 11 12 14 16 16 18 17 16 17 18 20 23 22 22 23 23 22 22 22 21 20 19 18 17 16 15 13 12 11 10 11 9 8 7 6 6 6 6 6 7 8 8 9 9 9 9
8 8 9 12 14 15 17 17 19 16 16 18 18 19 19 21 21 22 22 22 22 21 21 20 19 18 17 16 14 13 12 11 10 10 9 7 6 6 6 6 6 7 7 8 8 8 9 9 9
7 9 12 12 14 16 18 18 18 18 18 18 18 19 19 20 21 22 22 22 21 21 20 19 18 18 17 16 14 13 11 9 8 7 6 6 6 6 5 5 6 6 7 8 8 8 9 9 9
8 11 11 13 13 15 18 19 18 17 18 19 19 19 18 19 20 21 20 20 19 19 19 18 16 16 16 15 14 12 11 8 7 6 5 5 5 4 5 5 6 6 7 7 7 8 8 9 9
10 11 10 12 16 18 18 18 18 16 17 18 19 17 16 16 15 18 18 18 18 18 18 17 16 15 15 14 12 10 8 6 5 5 4 4 4 4 4 4 5 5 6 6 6 7 7 8 9
11 10 11 15 15 16 17 18 17 16 16 17 17 15 12 11 9 12 14 15 15 16 16 16 15 14 13 12 11 9 7 6 5 4 4 3 3 3 3 3 4 4 5 6 7 7 8 8 9
10 11 13 15 16 16 16 15 15 15 16 16 15 13 10 8 8 10 11 12 13 14 14 14 14 13 12 11 9 9 8 6 5 3 2 2 2 2 2 3 4 4 5 6 7 8 8 9 9
11 12 14 15 15 15 16 15 14 15 15 15 13 11 10 7 6 6 8 9 12 13 13 13 12 12 12 11 9 9 7 6 5 3 2 1 1 2 2 3 4 4 6 7 8 8 9 9 10
13 13 14 14 14 14 13 15 13 14 14 14 12 10 8 5 5 6 7 9 10 10 11 12 12 12 12 10 9 8 7 6 4 3 2 1 0 1 2 3 3 5 6 7 8 9 10 11 11
15 15 14 13 13 14 14 15 13 12 14 12 12 9 6 4 5 6 7 9 9 10 11 12 12 11 10 10 9 8 7 6 4 4 2 1 1 1 2 3 4 5 7 8 10 11 11 12 12
15 15 14 13 14 16 11 12 12 12 13 12 10 8 5 4 5 5 6 8 10 10 11 11 10 10 10 10 9 8 7 6 5 4 3 1 0 1 3 4 5 6 8 10 11 12 12 13 14
13 13 14 15 14 11 7 8 10 11 12 11 9 6 3 3 4 5 6 7 9 10 10 10 10 10 9 9 9 8 7 6 5 4 3 2 2 2 3 5 6 8 9 11 12 13 14 15 15
14 13 14 15 13 12 9 9 9 10 9 9 7 5 2 2 4 5 6 7 8 8 9 9 10 10 9 10 9 8 7 7 5 4 3 3 3 4 5 6 8 9 11 12 13 14 15 16 17
17 15 14 15 12 12 12 12 11 8 7 7 6 4 3 3 5 5 6 7 8 8 8 8 9 9 9 9 9 8 7 6 5 5 4 4 5 6 7 9 10 11 12 14 15 16 17 18 18
17 15 15 15 15 13 13 14 12 7 7 7 6 4 4 4 5 6 6 7 7 8 7 8 8 9 8 9 9 8 7 6 6 6 6 6 7 8 9 11 12 13 14 15 16 17 18 19 19
18 17 17 16 15 15 16 14 11 9 8 8 6 5 4 5 5 6 7 8 8 8 7 7 8 8 8 8 8 8 8 8 7 7 8 8 9 11 12 13 14 15 16 17 18 19 19 20 21
20 19 19 18 16 14 15 15 10 9 8 8 7 7 6 6 6 6 7 8 8 8 8 8 8 8 8 8 8 8 8 8 8 9 9 10 12 13 14 14 15 16 17 18 19 20 20 21 22

GEFSSGP_500_meanwind_144.txt.gz
Wind_Speed
13 12 12 10 9 9 9 10 8 10 10 10 11 12 13 12 10 8 7 5 5 3 3 3 2 2 1 1 1 2 2 2 3 4 4 4 5 4 4 4 3 3 3 3 2 2 2 1 1
13 13 12 10 8 8 9 9 9 11 13 14 15 15 14 13 10 9 8 6 5 4 4 4 4 3 3 2 1 2 2 2 3 4 4 5 5 5 5 5 5 4 4 4 4 3 3 2 2
13 13 12 10 9 8 8 9 9 12 14 17 19 19 16 14 10 10 9 6 6 5 6 6 5 5 4 4 3 2 2 3 4 4 5 5 5 5 6 6 6 5 5 5 5 4 4 4 3
14 13 12 10 8 8 8 9 10 14 17 20 22 21 18 15 10 9 8 7 6 7 7 7 7 6 5 5 4 4 3 4 4 5 5 6 6 6 7 6 6 6 7 7 6 6 5 5 4
14 13 11 9 9 10 9 9 12 16 20 23 23 22 19 16 12 10 9 8 8 8 8 8 8 8 7 6 6 5 5 4 5 5 6 6 7 7 7 7 7 7 7 7 7 6 6 5 5
14 12 11 10 11 11 11 10 14 18 21 25 24 22 20 17 13 11 9 9 9 8 9 9 9 9 8 7 7 6 5 5 6 6 7 7 7 8 8 7 7 7 7 7 7 6 6 6 6
13 12 10 10 12 12 11 12 16 21 25 25 24 24 21 18 15 12 11 10 10 9 9 10 10 10 9 9 7 7 6 6 6 7 7 8 8 8 8 8 7 7 7 7 7 7 7 7 6
13 11 11 11 12 12 12 12 16 21 24 25 26 24 21 19 17 15 11 11 11 10 11 11 10 10 10 9 8 7 7 7 7 8 8 8 9 9 8 8 8 8 8 8 8 8 8 8 8
13 11 11 13 13 13 14 14 18 22 24 26 26 24 21 19 18 15 13 12 12 12 12 13 11 11 10 10 9 8 8 8 8 8 9 10 9 9 9 9 9 8 9 9 9 9 9 9 9
12 11 12 13 14 15 15 17 19 22 24 25 24 22 21 20 18 16 16 15 13 12 13 14 13 11 11 11 10 10 9 9 9 9 10 10 10 9 8 8 8 8 8 9 9 9 9 9 9
13 12 13 14 14 14 15 16 19 22 24 23 22 22 21 20 18 17 17 15 14 13 13 14 13 12 12 12 11 10 10 9 9 8 9 10 10 9 8 8 8 7 7 7 8 8 8 9 8
13 13 13 12 13 13 14 16 18 20 21 21 23 22 21 19 19 18 17 16 16 15 14 14 15 14 13 12 11 10 10 9 9 8 8 8 8 8 8 7 7 6 6 6 6 6 7 7 7
13 13 12 11 11 11 13 14 16 17 18 20 21 21 21 20 19 17 16 17 17 17 16 14 15 15 14 13 12 10 9 8 8 8 7 7 7 6 6 6 5 5 5 5 6 6 6 7 7
12 12 10 10 10 11 13 14 14 16 18 18 19 18 18 17 17 15 14 14 17 17 17 15 14 13 13 13 12 10 9 8 7 7 6 6 5 4 4 4 4 4 4 4 4 5 6 6 7
11 9 8 8 8 10 13 13 13 16 17 18 19 17 17 17 17 16 15 14 15 16 16 15 14 14 13 12 12 11 9 8 7 6 5 5 4 4 4 3 3 3 3 3 4 4 5 5 6
8 8 7 7 8 10 11 11 12 15 16 17 17 16 15 15 16 15 15 15 14 15 16 16 15 14 12 11 10 11 10 8 7 6 5 5 5 4 3 3 3 3 3 3 3 4 4 5 5
7 6 6 6 9 11 12 12 12 14 15 16 16 17 16 14 13 11 11 11 13 14 16 17 16 14 12 11 10 9 10 9 7 7 5 5 5 4 3 2 2 2 2 2 2 3 3 4 5
8 8 7 8 11 12 13 13 12 13 14 15 16 16 16 13 11 10 8 10 13 13 15 17 16 14 12 12 11 10 9 9 8 7 6 5 5 4 3 2 1 1 1 0 1 1 2 3 4
10 9 8 9 12 13 13 13 14 14 15 15 16 16 15 13 10 8 7 10 11 13 15 16 15 14 12 11 11 10 10 9 8 7 6 5 4 4 3 2 3 2 2 2 2 2 2 3 3
11 10 9 11 13 14 14 14 15 15 16 15 15 14 14 12 9 8 7 8 10 14 15 14 15 14 13 11 11 11 11 10 9 8 6 6 5 4 4 4 4 3 3 3 3 3 3 3 3
10 9 10 13 15 16 17 16 16 16 16 15 14 13 11 9 8 6 5 6 8 13 14 14 14 14 13 13 13 13 11 10 9 8 7 6 5 5 5 5 4 4 4 3 3 4 4 4 4
11 9 12 15 17 18 19 19 15 15 15 14 12 10 8 7 6 4 4 6 8 13 14 15 14 14 14 14 14 13 12 11 10 8 7 6 6 6 6 5 4 4 3 3 3 4 4 5 5
12 12 14 17 18 19 19 19 15 14 14 12 10 8 7 5 4 3 4 6 9 12 14 15 14 14 15 15 14 14 13 12 10 9 8 7 7 6 5 5 4 3 2 2 3 4 5 6 6
14 14 17 18 19 19 18 19 14 13 12 10 7 6 5 3 2 4 5 7 9 12 13 14 14 14 15 15 15 14 13 12 10 9 8 7 7 7 6 5 3 2 1 2 3 4 5 7 7
16 17 18 18 18 18 18 17 13 12 9 7 5 4 4 2 2 5 7 7 10 12 13 14 14 15 15 15 14 14 13 12 10 9 9 8 8 7 6 4 3 1 1 2 4 5 6 7 8
18 18 19 19 18 18 17 16 10 9 8 6 4 3 3 3 4 5 6 8 10 12 13 14 14 15 15 15 15 14 13 12 10 10 9 8 8 7 5 4 3 2 3 4 5 6 7 8 9
20 20 20 20 20 19 17 14 10 8 8 6 3 2 3 4 4 5 8 9 10 12 14 14 14 14 15 15 15 14 13 12 11 10 9 8 8 7 5 4 4 4 5 6 7 8 9 9 10
23 23 23 22 21 20 17 12 10 8 6 4 3 2 4 5 5 5 8 9 10 11 13 14 14 14 15 14 14 13 12 12 11 10 9 9 8 7 6 5 6 6 7 8 8 9 10 11 11
26 25 24 24 23 21 18 13 10 8 6 5 4 4 5 5 5 5 7 9 10 11 12 13 13 13 13 13 13 12 12 12 11 11 10 9 9 7 7 7 7 8 8 9 10 11 11 12 13
26 25 24 25 25 22 20 14 11 8 7 6 6 6 6 7 7 7 7 9 11 12 11 11 11 11 12 12 13 13 12 12 12 11 10 10 10 9 8 8 9 9 10 10 11 12 13 13 14

GEFSSGP_500_meanwind_150.txt.gz
Wind_Speed
14 14 13 13 12 12 11 11 10 8 7 8 8 8 9 10 11 9 8 7 7 6 6 5 4 3 3 3 4 4 4 4 4 5 5 5 4 4 4 4 4 4 4 4 4 4 4 4 4
15 14 14 13 13 13 11 11 10 8 9 8 8 9 9 10 11 10 9 8 7 7 6 6 5 4 3 3 3 3 3 3 3 3 4 4 4 4 4 4 4 4 4 4 4 4 4 3 3
15 15 14 14 13 13 12 12 11 9 8 8 9 10 10 12 12 11 10 8 7 8 8 7 6 5 4 3 3 2 2 2 2 3 3 3 4 4 4 4 4 4 4 4 4 4 3 3 3
16 15 15 14 13 13 12 13 12 11 10 10 10 11 11 12 13 12 11 9 8 9 9 8 7 6 4 3 3 2 1 1 1 2 3 3 3 4 4 4 4 4 4 4 4 4 3 2 2
16 15 15 14 14 14 14 14 13 12 11 11 11 12 12 13 13 12 12 10 8 8 9 9 8 6 5 4 4 2 1 1 0 1 2 3 4 4 4 5 5 5 4 4 3 3 2 2 2
17 16 15 15 15 15 15 15 14 14 13 12 11 12 14 14 13 12 11 9 8 9 9 10 9 7 6 6 5 4 3 2 1 1 2 3 4 4 5 5 5 5 4 4 3 3 3 2 2
17 16 16 16 16 17 16 15 15 15 15 12 12 13 14 14 13 12 11 10 9 10 10 11 10 9 8 7 6 5 4 3 3 2 2 3 4 5 5 5 5 5 5 4 4 4 4 3 3
17 16 16 16 16 17 17 16 15 14 15 14 13 13 14 14 13 12 11 10 10 10 11 11 11 10 9 9 8 6 5 5 4 4 3 4 5 5 6 6 6 6 6 5 5 5 4 4 4
16 15 15 16 17 17 17 17 16 14 14 13 13 13 15 14 13 12 12 11 10 11 12 12 12 12 10 10 9 7 6 5 5 5 5 5 6 6 6 6 6 6 6 6 5 5 5 5 4
16 16 16 17 17 17 18 18 17 15 14 14 14 15 15 14 14 13 12 11 11 12 12 13 13 13 11 10 10 8 7 6 5 5 5 6 6 6 6 6 6 6 5 5 5 5 5 5 5
16 17 17 17 18 18 18 18 17 15 14 15 16 16 16 15 15 14 14 13 12 13 13 13 13 14 12 11 11 9 8 7 6 6 6 6 7 6 6 6 5 5 5 5 5 4 4 4 5
17 17 17 17 18 18 18 17 16 15 15 15 16 16 16 16 15 14 13 13 12 13 14 14 15 14 13 13 13 10 8 8 7 7 6 6 6 6 5 5 4 4 4 4 4 4 3 3 4
16 16 16 16 16 17 17 16 15 16 16 15 16 16 15 14 14 14 14 13 13 14 15 15 15 15 14 13 13 11 9 9 8 7 6 5 5 5 5 4 4 4 4 4 3 3 3 3 3
16 15 15 15 15 16 16 15 15 15 15 15 16 16 15 14 13 13 13 13 13 15 17 17 16 16 15 14 13 13 11 10 9 7 6 6 5 5 5 4 3 3 3 3 2 2 2 2 2
15 15 14 13 14 14 14 14 14 14 14 14 14 14 13 11 11 11 12 12 13 14 16 17 17 18 15 14 14 14 13 11 10 8 7 6 5 4 4 4 3 2 2 2 2 2 2 2 2
14 14 14 13 13 13 13 11 12 11 12 12 13 14 13 11 11 11 11 12 12 13 15 18 19 18 17 16 15 14 13 12 10 9 8 6 5 5 4 4 2 2 2 2 2 2 2 2 2
15 15 14 14 13 13 12 11 11 11 11 12 14 14 13 12 12 12 12 11 11 12 16 18 19 19 18 18 16 15 13 12 11 10 8 7 6 5 4 4 3 2 1 1 2 1 1 1 1
16 16 15 14 14 13 11 11 12 11 12 14 14 14 13 12 12 12 11 11 11 12 15 18 19 19 19 19 17 16 14 13 12 10 9 8 7 6 5 4 3 2 1 1 0 1 1 1 1
17 16 16 15 14 13 11 11 12 12 13 14 15 14 12 11 12 12 11 11 11 12 14 16 19 20 19 18 17 16 15 14 12 12 10 9 8 6 6 4 3 2 1 1 0 1 1 1 2
18 17 16 16 16 15 13 12 12 13 13 14 15 14 12 11 11 11 11 11 11 13 13 16 17 20 20 19 18 17 16 14 13 12 11 9 8 7 6 5 4 3 2 2 1 1 1 2 2
19 18 17 17 18 17 15 13 12 13 14 15 15 15 13 12 10 10 9 9 10 13 14 15 17 20 20 20 20 18 17 15 14 12 11 9 8 7 7 6 5 4 3 3 2 2 1 2 2
20 19 19 19 18 17 16 14 12 12 13 15 16 15 13 13 12 10 9 9 10 12 14 17 19 20 21 21 21 20 18 16 15 14 12 10 9 8 7 6 6 5 4 3 2 1 1 2 2
20 21 20 20 20 19 17 16 11 12 13 15 15 15 14 13 12 11 10 9 10 11 12 15 18 20 22 22 21 20 18 17 16 14 13 11 9 9 8 7 7 6 5 3 2 0 1 2 3
21 22 22 21 21 19 17 17 12 12 12 13 14 14 13 12 11 10 9 9 10 11 13 15 17 19 21 21 21 20 19 18 16 14 13 12 10 10 9 8 7 6 5 4 2 1 2 3 4
22 22 22 22 21 20 18 17 13 12 13 13 12 12 12 11 10 9 8 9 9 11 14 17 18 20 21 21 21 20 19 18 16 14 13 12 11 10 10 9 8 7 6 5 4 3 4 4 5
23 22 23 23 22 19 17 16 12 12 12 12 12 11 11 10 9 8 7 7 9 11 15 17 18 20 21 22 22 20 19 17 16 15 13 12 12 11 11 9 8 8 7 6 5 5 6 6 6
23 24 24 24 22 20 17 14 11 12 12 12 12 11 10 10 8 8 8 8 9 11 15 16 18 20 21 22 21 20 18 17 16 15 14 13 12 11 10 10 9 8 8 7 7 7 8 8 8
24 23 23 23 23 21 16 13 11 11 12 12 11 10 9 8 7 8 8 8 9 12 15 17 17 19 21 21 20 20 18 17 16 15 15 14 13 12 11 10 10 9 9 9 9 9 9 10 10
23 24 24 24 23 21 18 13 12 12 12 12 11 10 9 8 7 7 8 8 10 12 14 16 17 19 19 20 20 19 19 18 16 15 15 14 13 12 12 12 11 11 11 11 11 11 11 11 12
26 25 25 24 22 22 19 13 13 13 12 11 11 10 9 9 8 9 9 9 10 12 13 15 16 17 18 19 19 19 19 18 17 15 15 14 13 13 13 13 13 13 13 13 13 13 13 14 14

GEFSSGP_500_meanwind_156.txt.gz
Wind_Speed
11 11 11 10 10 9 7 6 6 5 5 4 4 3 2 2 2 2 3 4 4 3 3 5 4 4 4 4 4 5 5 5 6 6 6 6 7 7 6 6 6 6 6 6 6 6 5 5 5
12 11 11 11 10 8 8 7 6 6 6 5 4 4 4 4 3 3 4 5 5 5 5 5 6 5 5 5 5 5 5 5 5 5 6 6 6 5 5 5 5 5 5 5 5 5 4 4 4
13 12 12 12 11 8 8 8 7 7 7 6 6 6 6 6 5 4 4 5 5 6 6 6 7 6 7 6 6 6 6 5 5 5 5 5 5 5 5 4 4 4 4 4 4 4 4 3 3
13 13 13 12 11 10 9 8 7 8 8 8 8 8 8 7 6 4 4 5 5 6 7 8 8 8 8 8 8 7 6 6 5 5 4 4 4 4 4 4 4 3 3 3 3 3 3 3 3
14 13 13 12 12 11 10 8 8 8 8 8 8 9 9 8 7 5 5 5 6 7 8 9 9 9 10 10 9 8 7 6 5 5 4 4 3 3 3 3 3 3 3 3 3 3 3 3 3
14 13 12 11 13 12 11 10 9 8 8 9 8 9 9 8 7 6 5 5 6 7 9 10 10 10 11 10 10 9 8 7 6 5 4 3 3 3 3 2 3 3 2 2 2 3 2 2 3
14 13 12 12 13 13 12 11 9 9 9 9 9 9 9 8 7 6 5 6 7 8 9 11 11 12 11 11 11 10 9 8 6 5 5 4 3 2 2 2 2 2 2 2 2 3 3 3 3
14 13 12 12 12 13 12 11 10 10 10 10 10 10 10 9 7 7 6 7 7 9 10 11 13 13 12 12 12 11 10 8 7 6 5 4 3 2 2 2 2 2 3 2 2 3 3 4 4
14 12 12 12 12 14 13 12 11 10 11 11 11 11 11 10 8 7 7 8 9 11 12 12 13 13 13 13 12 12 10 9 8 6 6 5 4 3 2 2 2 2 2 2 3 3 3 4 4
14 12 13 13 13 13 13 12 12 11 11 11 12 12 12 11 9 8 7 8 10 12 13 13 14 14 14 14 14 13 11 10 8 7 6 5 4 4 3 3 2 2 2 2 3 3 3 4 4
15 14 14 14 14 13 13 12 11 12 12 12 12 12 12 12 11 9 9 9 11 13 14 15 15 14 14 15 14 13 12 11 9 8 7 6 5 4 3 3 2 2 2 2 3 3 3 3 3
15 15 14 14 14 13 13 12 12 12 12 13 13 12 12 12 11 10 10 10 11 13 15 16 17 16 15 15 14 14 12 11 10 8 7 6 6 5 4 3 3 2 2 2 2 3 2 2 3
16 15 15 14 14 13 13 12 12 12 13 13 13 13 13 12 12 11 11 11 12 13 15 17 18 18 17 16 16 15 14 12 11 9 7 6 6 5 5 4 3 2 2 2 2 3 2 3 3
16 15 15 14 14 13 13 13 13 12 13 13 13 13 13 13 13 12 12 12 12 13 15 16 18 19 19 18 18 17 15 14 13 10 8 7 6 6 5 5 4 4 3 3 3 3 3 3 2
16 15 14 14 13 13 12 13 13 12 12 13 13 13 13 13 12 12 12 13 13 14 15 17 18 20 20 20 19 17 16 15 13 11 9 8 7 7 6 5 4 4 3 3 4 4 3 3 2
15 14 14 15 14 13 12 12 13 12 12 12 13 13 12 12 12 13 13 12 12 13 15 17 18 20 21 20 20 18 17 16 14 12 10 9 9 8 6 6 4 4 4 4 4 4 3 3 2
15 14 14 16 14 14 12 11 12 11 11 11 12 13 13 13 12 12 12 13 13 13 15 17 18 19 20 20 20 19 18 16 14 13 11 10 10 8 7 6 5 4 4 4 4 3 3 3 3
15 15 16 16 16 14 13 12 12 12 11 11 12 13 13 12 12 12 12 13 14 14 14 16 18 18 19 19 20 19 18 17 15 13 12 11 10 9 8 7 6 5 4 4 4 3 3 3 3
17 16 16 17 16 14 13 12 12 12 12 12 12 12 12 12 12 12 12 13 13 14 15 16 17 18 19 20 20 20 18 17 15 14 13 12 11 10 9 8 7 6 5 4 4 4 3 3 3
16 16 16 16 16 14 14 13 13 13 13 13 13 12 13 13 12 12 12 12 12 14 15 16 17 18 19 20 20 21 20 18 17 15 14 13 11 11 10 9 8 6 6 5 5 4 4 3 2
16 16 16 16 15 14 13 13 14 14 13 13 14 14 13 13 12 12 12 11 11 12 13 16 17 18 20 21 22 21 20 19 17 16 15 14 12 11 10 9 8 7 7 6 5 5 4 3 2
16 17 17 16 14 14 13 11 14 14 14 13 14 14 14 13 12 12 11 11 11 11 13 15 16 18 19 21 22 22 21 19 18 17 16 15 13 12 11 10 9 8 7 6 5 5 4 3 2
18 18 17 16 15 14 13 11 12 13 13 14 14 14 13 12 12 12 11 11 11 12 13 15 15 17 19 20 22 22 22 21 20 18 17 15 13 12 12 11 10 9 7 7 6 5 4 3 2
18 17 16 15 14 14 14 12 10 11 12 13 14 14 13 11 11 11 11 11 11 11 12 15 15 16 18 20 23 23 23 21 20 18 17 16 15 13 13 12 10 9 8 7 6 5 5 4 3
18 16 14 14 14 14 15 12 11 11 12 13 13 13 12 11 10 10 11 11 11 11 11 13 14 16 18 20 22 23 23 21 20 18 17 17 16 14 13 12 10 9 8 8 7 6 5 4 4
18 17 16 15 14 14 16 13 11 12 12 12 12 12 11 11 10 10 11 12 12 12 12 12 15 17 18 20 22 22 23 22 21 19 18 18 17 15 13 12 10 10 9 9 8 7 6 6 6
19 19 18 17 16 15 14 13 12 13 13 12 12 11 11 10 10 10 10 10 11 12 12 13 15 17 19 20 22 23 23 22 21 20 19 18 17 15 14 12 11 11 10 9 9 8 8 8 8
21 19 19 18 16 15 14 13 12 12 12 13 13 12 11 10 10 9 8 8 9 11 12 13 13 15 18 21 22 23 23 22 21 21 20 19 16 15 14 13 12 11 11 10 10 10 9 10 10
21 21 20 19 18 15 14 14 15 14 13 13 12 12 11 10 9 9 9 9 10 11 12 12 13 15 17 20 22 23 23 23 22 21 20 18 17 15 14 14 13 13 12 12 12 11 12 11 12
22 21 21 20 19 17 15 15 16 15 14 13 12 11 11 10 9 9 9 9 10 11 12 13 14 14 17 19 22 23 22 21 21 20 19 18 17 16 15 15 14 13 13 13 13 13 13 13 14